| time (UTC) | temp C | wind direction | speed KPH | gust KPH | rain 1hr cm | rain 24hr cm | rain mn cm | humidity % | barometer mb |
| 20260506205149 | 28 | 200 | 6.4 | 8.0 | 0.00 | 0.15 | 0.15 | 79 | |
| 20260506204608 | 28 | 213 | 4.8 | 4.8 | 0.00 | 0.15 | 0.15 | 79 | |
| 20260506204109 | 28 | 196 | 4.8 | 4.8 | 0.00 | 0.15 | 0.15 | 81 | |
| 20260506203609 | 28 | 196 | 6.4 | 9.7 | 0.00 | 0.15 | 0.15 | 81 | |
| 20260506203149 | 28 | 212 | 4.8 | 6.4 | 0.00 | 0.15 | 0.15 | 80 | |
| 20260506202609 | 28 | 192 | 4.8 | 8.0 | 0.00 | 0.15 | 0.15 | 80 | |
| 20260506202109 | 28 | 194 | 6.4 | 9.7 | 0.00 | 0.15 | 0.15 | 80 | |
| 20260506201609 | 28 | 187 | 6.4 | 8.0 | 0.00 | 0.15 | 0.15 | 82 | |
| 20260506201129 | 28 | 198 | 4.8 | 6.4 | 0.00 | 0.15 | 0.15 | 83 | |
| 20260506200609 | 28 | 195 | 9.7 | 11.3 | 0.00 | 0.15 | 0.15 | 83 | |
| 20260506200109 | 28 | 195 | 8.0 | 11.3 | 0.00 | 0.15 | 0.15 | 82 | |
| 20260506195609 | 28 | 181 | 8.0 | 9.7 | 0.00 | 0.15 | 0.15 | 81 | |
| 20260506195110 | 28 | 198 | 6.4 | 8.0 | 0.00 | 0.15 | 0.15 | 80 | |
| 20260506194610 | 28 | 182 | 6.4 | 6.4 | 0.00 | 0.15 | 0.15 | 80 | |
| 20260506194109 | 28 | 185 | 4.8 | 6.4 | 0.00 | 0.15 | 0.15 | 80 | |
| 20260506193610 | 28 | 150 | 12.9 | 14.5 | 0.00 | 0.15 | 0.15 | 79 | |
| 20260506193150 | 28 | 153 | 11.3 | 12.9 | 0.00 | 0.15 | 0.15 | 79 | |
| 20260506192610 | 28 | 191 | 6.4 | 6.4 | 0.00 | 0.15 | 0.15 | 80 | |
| 20260506192110 | 28 | 171 | 4.8 | 8.0 | 0.00 | 0.15 | 0.15 | 81 | |
| 20260506191610 | 28 | 169 | 4.8 | 4.8 | 0.00 | 0.15 | 0.15 | 81 | |
| 20260506191110 | 28 | 157 | 6.4 | 9.7 | 0.00 | 0.15 | 0.15 | 81 | |
| 20260506190610 | 28 | 160 | 3.2 | 4.8 | 0.00 | 0.15 | 0.15 | 81 | |
| 20260506190110 | 28 | 183 | 4.8 | 6.4 | 0.00 | 0.15 | 0.15 | 81 | |
| 20260506185610 | 28 | 174 | 8.0 | 16.1 | 0.00 | 0.15 | 0.15 | 81 | |
| 20260506185150 | 28 | 166 | 6.4 | 8.0 | 0.00 | 0.15 | 0.15 | 82 | |
| 20260506184631 | 28 | 136 | 6.4 | 6.4 | 0.00 | 0.15 | 0.15 | 82 | |
| 20260506184111 | 28 | 109 | 4.8 | 4.8 | 0.00 | 0.15 | 0.15 | 82 | |
| 20260506183611 | 28 | 99 | 4.8 | 6.4 | 0.00 | 0.15 | 0.15 | 82 | |
| 20260506183111 | 28 | 112 | 3.2 | 4.8 | 0.00 | 0.15 | 0.15 | 82 | |
| 20260506182611 | 28 | 81 | 4.8 | 4.8 | 0.00 | 0.15 | 0.15 | 82 | |
| 20260506182111 | 27 | 176 | 3.2 | 4.8 | 0.00 | 0.15 | 0.15 | 83 | |
| 20260506181611 | 27 | 212 | 1.6 | 4.8 | 0.00 | 0.15 | 0.15 | 84 | |
| 20260506181111 | 27 | 66 | 3.2 | 4.8 | 0.00 | 0.15 | 0.15 | 85 | |
| 20260506180611 | 27 | 134 | 3.2 | 4.8 | 0.00 | 0.15 | 0.15 | 86 | |
| 20260506180112 | 27 | 139 | 1.6 | 3.2 | 0.00 | 0.15 | 0.15 | 87 | |
| 20260506175633 | 27 | 67 | 3.2 | 6.4 | 0.00 | 0.15 | 0.15 | 87 | |
| 20260506175132 | 26 | 39 | 1.6 | 4.8 | 0.00 | 0.15 | 0.15 | 88 | |
| 20260506174632 | 26 | 168 | 3.2 | 3.2 | 0.00 | 0.15 | 0.15 | 88 | |
| 20260506174112 | 26 | 157 | 1.6 | 3.2 | 0.00 | 0.15 | 0.15 | 88 | |
| 20260506173612 | 26 | 172 | 3.2 | 3.2 | 0.00 | 0.15 | 0.15 | 89 | |
| 20260506173112 | 26 | 97 | 3.2 | 3.2 | 0.00 | 0.15 | 0.15 | 89 | |
| 20260506172613 | 26 | 89 | 3.2 | 4.8 | 0.00 | 0.15 | 0.15 | 90 | |
| 20260506172113 | 26 | 65 | 3.2 | 6.4 | 0.03 | 0.15 | 0.15 | 91 | |
| 20260506171612 | 26 | 102 | 4.8 | 6.4 | 0.15 | 0.15 | 0.15 | 91 | |
| 20260506171112 | 26 | 63 | 4.8 | 4.8 | 0.15 | 0.15 | 0.15 | 91 | |
| 20260506170612 | 26 | 96 | 3.2 | 4.8 | 0.15 | 0.15 | 0.15 | 92 | |
| 20260506170152 | 26 | 96 | 3.2 | 4.8 | 0.15 | 0.15 | 0.15 | 92 | |
| 20260506165612 | 26 | 162 | 4.8 | 4.8 | 0.15 | 0.15 | 0.15 | 92 | |
| 20260506165113 | 26 | 163 | 3.2 | 3.2 | 0.15 | 0.15 | 0.15 | 93 | |
| 20260506164613 | 25 | 127 | 3.2 | 3.2 | 0.15 | 0.15 | 0.15 | 94 | |
| 20260506164112 | 25 | 104 | 3.2 | 4.8 | 0.15 | 0.15 | 0.15 | 95 | |
| 20260506163612 | 25 | 89 | 3.2 | 3.2 | 0.15 | 0.15 | 0.15 | 94 | |
| 20260506163113 | 25 | 165 | 3.2 | 4.8 | 0.15 | 0.15 | 0.15 | 93 | |
| 20260506162653 | 26 | 179 | 4.8 | 6.4 | 0.15 | 0.15 | 0.15 | 91 | |
| 20260506162133 | 26 | 134 | 6.4 | 6.4 | 0.13 | 0.13 | 0.13 | 89 | |
| 20260506161613 | 26 | 135 | 4.8 | 6.4 | 0.00 | 0.00 | 0.00 | 88 | |
| 20260506161113 | 26 | 124 | 4.8 | 6.4 | 0.00 | 0.00 | 0.00 | 88 | |
| 20260506160613 | 26 | 103 | 4.8 | 4.8 | 0.00 | 0.00 | 0.00 | 88 | |
| 20260506160113 | 26 | 94 | 6.4 | 8.0 | 0.00 | 0.00 | 0.00 | 87 | |
| 20260506155613 | 26 | 79 | 4.8 | 6.4 | 0.00 | 0.00 | 0.00 | 87 | |
| 20260506155113 | 26 | 101 | 4.8 | 8.0 | 0.00 | 0.00 | 0.00 | 87 | |
| 20260506154613 | 26 | 100 | 4.8 | 8.0 | 0.00 | 0.00 | 0.00 | 88 | |
| 20260506154113 | 26 | 129 | 4.8 | 4.8 | 0.00 | 0.00 | 0.00 | 88 | |
| 20260506153614 | 26 | 115 | 4.8 | 4.8 | 0.00 | 0.00 | 0.00 | 88 | |
| 20260506153113 | 26 | 122 | 4.8 | 4.8 | 0.00 | 0.00 | 0.00 | 89 | |
| 20260506152614 | 26 | 105 | 4.8 | 6.4 | 0.00 | 0.00 | 0.00 | 89 | |
| 20260506152114 | 26 | 105 | 3.2 | 6.4 | 0.00 | 0.00 | 0.00 | 90 | |
| 20260506151613 | 26 | 122 | 4.8 | 6.4 | 0.00 | 0.00 | 0.00 | 90 | |
| 20260506151134 | 26 | 28 | 4.8 | 6.4 | 0.00 | 0.00 | 0.00 | 90 | |
| 20260506150614 | 25 | 104 | 4.8 | 8.0 | 0.00 | 0.00 | 0.00 | 91 | |
| 20260506150114 | 25 | 100 | 6.4 | 8.0 | 0.00 | 0.00 | 0.00 | 91 | |
| 20260506145614 | 25 | 102 | 4.8 | 4.8 | 0.00 | 0.00 | 0.00 | 92 | |
| 20260506145114 | 25 | 123 | 4.8 | 6.4 | 0.00 | 0.00 | 0.00 | 92 | |
| 20260506144755 | 25 | 99 | 4.8 | 8.0 | 0.00 | 0.00 | 0.00 | 92 | |
| 20260506144155 | 25 | 124 | 6.4 | 6.4 | 0.00 | 0.00 | 0.00 | 93 | |
| 20260506143634 | 25 | 124 | 4.8 | 6.4 | 0.00 | 0.00 | 0.00 | 93 | |
| 20260506143114 | 25 | 150 | 6.4 | 8.0 | 0.00 | 0.00 | 0.00 | 94 | |
| 20260506142615 | 25 | 88 | 4.8 | 4.8 | 0.00 | 0.00 | 0.00 | 94 | |
| 20260506142115 | 25 | 110 | 4.8 | 4.8 | 0.00 | 0.00 | 0.00 | 94 | |
| 20260506141655 | 25 | 100 | 4.8 | 4.8 | 0.00 | 0.00 | 0.00 | 95 | |
| 20260506141115 | 25 | 103 | 4.8 | 6.4 | 0.00 | 0.00 | 0.00 | 95 | |
| 20260506140615 | 25 | 103 | 4.8 | 4.8 | 0.00 | 0.00 | 0.00 | 95 | |
| 20260506140116 | 25 | 53 | 4.8 | 6.4 | 0.00 | 0.00 | 0.00 | 96 | |
| 20260506135615 | 25 | 96 | 4.8 | 6.4 | 0.00 | 0.00 | 0.00 | 96 | |
| 20260506135115 | 24 | 124 | 3.2 | 6.4 | 0.00 | 0.00 | 0.00 | 96 | |
| 20260506134635 | 24 | 160 | 3.2 | 4.8 | 0.00 | 0.00 | 0.00 | 97 | |
| 20260506134115 | 24 | 118 | 4.8 | 6.4 | 0.00 | 0.00 | 0.00 | 97 | |
| 20260506133615 | 24 | 148 | 3.2 | 4.8 | 0.00 | 0.00 | 0.00 | 97 | |
| 20260506133115 | 24 | 112 | 3.2 | 3.2 | 0.00 | 0.00 | 0.00 | 98 | |
| 20260506132635 | 24 | 9 | 3.2 | 4.8 | 0.00 | 0.00 | 0.00 | 98 | |
| 20260506132135 | 23 | 40 | 3.2 | 4.8 | 0.00 | 0.00 | 0.00 | 98 | |
| 20260506131636 | 23 | 83 | 3.2 | 3.2 | 0.00 | 0.00 | 0.00 | 98 | |
| 20260506131115 | 23 | 170 | 4.8 | 6.4 | 0.00 | 0.00 | 0.00 | 98 | |
| 20260506130616 | 23 | 117 | 3.2 | 4.8 | 0.00 | 0.00 | 0.00 | 98 | |
| 20260506130116 | 23 | 65 | 3.2 | 3.2 | 0.00 | 0.00 | 0.00 | 98 | |
| 20260506125616 | 23 | 148 | 3.2 | 4.8 | 0.00 | 0.00 | 0.00 | 98 | |
| 20260506125136 | 23 | 130 | 3.2 | 3.2 | 0.00 | 0.00 | 0.00 | 99 | |
| 20260506124616 | 23 | 107 | 4.8 | 4.8 | 0.00 | 0.00 | 0.00 | 99 | |
| 20260506124116 | 23 | 102 | 4.8 | 6.4 | 0.00 | 0.00 | 0.00 | 99 | |
| 20260506123636 | 23 | 51 | 3.2 | 4.8 | 0.00 | 0.00 | 0.00 | 98 | |
| 20260506123136 | 23 | 55 | 3.2 | 4.8 | 0.00 | 0.00 | 0.00 | 98 | |
| 20260506122616 | 23 | 2 | 4.8 | 8.0 | 0.00 | 0.00 | 0.00 | 98 | |
| 20260506122117 | 23 | 240 | 4.8 | 6.4 | 0.00 | 0.00 | 0.00 | 98 | |
| 20260506121617 | 23 | 124 | 3.2 | 4.8 | 0.00 | 0.00 | 0.00 | 98 | |
| 20260506121138 | 23 | 260 | 4.8 | 6.4 | 0.00 | 0.00 | 0.00 | 98 | |
| 20260506120617 | 23 | 304 | 4.8 | 6.4 | 0.00 | 0.00 | 0.00 | 98 | |
| 20260506120116 | 23 | 306 | 3.2 | 3.2 | 0.00 | 0.00 | 0.00 | 98 | |
| 20260506115518 | 23 | 272 | 3.2 | 4.8 | 0.00 | 0.00 | 0.00 | 98 | |
| 20260506115057 | 23 | 212 | 4.8 | 8.0 | 0.00 | 0.00 | 0.00 | 98 | |
| 20260506114516 | 23 | 217 | 4.8 | 6.4 | 0.00 | 0.00 | 0.00 | 98 | |
| 20260506114016 | 23 | 239 | 6.4 | 8.0 | 0.00 | 0.00 | 0.00 | 98 | |
| 20260506113517 | 23 | 156 | 4.8 | 6.4 | 0.00 | 0.00 | 0.00 | 98 | |
| 20260506113017 | 23 | 189 | 4.8 | 6.4 | 0.00 | 0.00 | 0.00 | 98 | |
| 20260506112517 | 23 | 180 | 6.4 | 8.0 | 0.00 | 0.00 | 0.00 | 98 | |
| 20260506112017 | 23 | 225 | 4.8 | 8.0 | 0.00 | 0.00 | 0.00 | 98 | |
| 20260506111617 | 23 | 200 | 6.4 | 8.0 | 0.00 | 0.00 | 0.00 | 98 | |
| 20260506111117 | 23 | 222 | 6.4 | 8.0 | 0.00 | 0.00 | 0.00 | 98 | |
| 20260506110617 | 23 | 204 | 4.8 | 6.4 | 0.00 | 0.00 | 0.00 | 98 | |
| 20260506110017 | 23 | 189 | 4.8 | 6.4 | 0.00 | 0.00 | 0.00 | 98 | |
| 20260506105518 | 23 | 215 | 4.8 | 6.4 | 0.00 | 0.00 | 0.00 | 98 | |
| 20260506105017 | 23 | 157 | 3.2 | 4.8 | 0.00 | 0.00 | 0.00 | 98 | |
| 20260506104537 | 23 | 259 | 3.2 | 4.8 | 0.00 | 0.00 | 0.00 | 98 | |
| 20260506104017 | 23 | 231 | 4.8 | 4.8 | 0.00 | 0.00 | 0.00 | 98 | |
| 20260506103518 | 23 | 183 | 4.8 | 4.8 | 0.00 | 0.00 | 0.00 | 98 | |
| 20260506103058 | 23 | 212 | 4.8 | 8.0 | 0.00 | 0.00 | 0.00 | 98 | |
| 20260506102518 | 23 | 169 | 6.4 | 9.7 | 0.00 | 0.00 | 0.00 | 97 | |
| 20260506102018 | 23 | 159 | 4.8 | 6.4 | 0.00 | 0.00 | 0.00 | 97 | |
| 20260506101518 | 23 | 184 | 8.0 | 8.0 | 0.00 | 0.00 | 0.00 | 97 | |
| 20260506101018 | 23 | 162 | 6.4 | 8.0 | 0.00 | 0.00 | 0.00 | 97 | |
| 20260506100518 | 23 | 171 | 6.4 | 8.0 | 0.00 | 0.00 | 0.00 | 97 | |
| 20260506100018 | 23 | 160 | 8.0 | 9.7 | 0.00 | 0.00 | 0.00 | 97 | |
| 20260506095518 | 23 | 162 | 6.4 | 8.0 | 0.00 | 0.00 | 0.00 | 97 | |
| 20260506095019 | 23 | 159 | 6.4 | 8.0 | 0.00 | 0.00 | 0.00 | 97 | |
| 20260506094518 | 23 | 174 | 6.4 | 6.4 | 0.00 | 0.00 | 0.00 | 97 | |
| 20260506094018 | 23 | 148 | 4.8 | 6.4 | 0.00 | 0.00 | 0.00 | 97 | |
| 20260506093539 | 23 | 167 | 6.4 | 9.7 | 0.00 | 0.00 | 0.00 | 97 | |
| 20260506093018 | 23 | 159 | 6.4 | 9.7 | 0.00 | 0.00 | 0.00 | 96 | |
| 20260506092519 | 23 | 160 | 6.4 | 8.0 | 0.00 | 0.00 | 0.00 | 96 | |
| 20260506092019 | 23 | 154 | 6.4 | 6.4 | 0.00 | 0.00 | 0.00 | 96 | |
| 20260506091519 | 23 | 174 | 6.4 | 6.4 | 0.00 | 0.00 | 0.00 | 96 | |
| 20260506091019 | 23 | 159 | 6.4 | 8.0 | 0.00 | 0.00 | 0.00 | 96 | |
| 20260506090519 | 23 | 164 | 6.4 | 9.7 | 0.00 | 0.00 | 0.00 | 96 | |
| 20260506090019 | 23 | 177 | 4.8 | 6.4 | 0.00 | 0.00 | 0.00 | 96 | |
| 20260506085539 | 23 | 167 | 4.8 | 6.4 | 0.00 | 0.00 | 0.00 | 96 | |
| 20260506085019 | 23 | 184 | 4.8 | 6.4 | 0.00 | 0.00 | 0.00 | 96 | |
| 20260506084521 | 23 | 156 | 6.4 | 8.0 | 0.00 | 0.00 | 0.00 | 96 | |
| 20260506084040 | 23 | 154 | 6.4 | 9.7 | 0.00 | 0.00 | 0.00 | 96 | |
| 20260506083520 | 23 | 108 | 3.2 | 4.8 | 0.00 | 0.00 | 0.00 | 96 | |
| 20260506083021 | 23 | 122 | 3.2 | 4.8 | 0.00 | 0.00 | 0.00 | 96 | |
| 20260506082521 | 23 | 158 | 4.8 | 6.4 | 0.00 | 0.00 | 0.00 | 96 | |
| 20260506082020 | 23 | 139 | 3.2 | 4.8 | 0.00 | 0.00 | 0.00 | 96 | |
| 20260506081520 | 23 | 149 | 4.8 | 6.4 | 0.00 | 0.00 | 0.00 | 96 | |
| 20260506081022 | 23 | 178 | 4.8 | 6.4 | 0.00 | 0.00 | 0.00 | 96 | |
| 20260506080520 | 24 | 163 | 3.2 | 4.8 | 0.00 | 0.00 | 0.00 | 96 | |
| 20260506073021 | 23 | 164 | 4.8 | 6.4 | 0.00 | 0.00 | 0.00 | 97 | |
| 20260506072521 | 23 | 169 | 4.8 | 6.4 | 0.00 | 0.00 | 0.00 | 97 | |
| 20260506072021 | 23 | 157 | 4.8 | 6.4 | 0.00 | 0.00 | 0.00 | 97 | |
| 20260506071521 | 23 | 184 | 4.8 | 4.8 | 0.00 | 0.00 | 0.00 | 97 | |
| 20260506071021 | 23 | 152 | 3.2 | 6.4 | 0.00 | 0.00 | 0.00 | 97 | |
| 20260506070521 | 23 | 149 | 4.8 | 8.0 | 0.00 | 0.00 | 0.00 | 96 | |
| 20260506062042 | 24 | 177 | 4.8 | 8.0 | 0.00 | 0.00 | 0.00 | 96 | |
| 20260506061522 | 24 | 157 | 6.4 | 6.4 | 0.00 | 0.00 | 0.00 | 96 | |
| 20260506061022 | 24 | 178 | 4.8 | 4.8 | 0.00 | 0.00 | 0.00 | 96 | |
| 20260506060522 | 24 | 186 | 3.2 | 4.8 | 0.00 | 0.00 | 0.00 | 96 | |
| 20260506051023 | 24 | 137 | 3.2 | 4.8 | 0.00 | 0.00 | 0.00 | 95 | |
| 20260506050523 | 24 | 130 | 3.2 | 4.8 | 0.00 | 0.00 | 0.00 | 94 | |
| 20260506050103 | 24 | 168 | 3.2 | 4.8 | 0.00 | 0.00 | 0.00 | 94 | |
| 20260506045023 | 24 | 118 | 3.2 | 4.8 | 0.00 | 0.00 | 0.00 | 94 | |
| 20260506044523 | 24 | 141 | 3.2 | 4.8 | 0.00 | 0.00 | 0.00 | 94 | |
| 20260506044023 | 24 | 165 | 4.8 | 6.4 | 0.00 | 0.00 | 0.00 | 93 | |
| 20260506043523 | 24 | 180 | 3.2 | 6.4 | 0.00 | 0.00 | 0.00 | 93 | |
| 20260506043043 | 24 | 148 | 3.2 | 3.2 | 0.00 | 0.00 | 0.00 | 93 | |
| 20260506042543 | 24 | 154 | 3.2 | 4.8 | 0.00 | 0.00 | 0.00 | 93 | |
| 20260506042023 | 25 | 173 | 3.2 | 4.8 | 0.00 | 0.00 | 0.00 | 92 | |
| 20260506041524 | 25 | 176 | 4.8 | 8.0 | 0.00 | 0.00 | 0.00 | 92 | |
| 20260506041023 | 25 | 135 | 4.8 | 8.0 | 0.00 | 0.00 | 0.00 | 91 | |
| 20260506040523 | 25 | 125 | 3.2 | 3.2 | 0.00 | 0.00 | 0.00 | 91 | |
| 20260506040024 | 25 | 133 | 4.8 | 4.8 | 0.00 | 0.00 | 0.00 | 91 | |
| 20260506035624 | 25 | 134 | 3.2 | 4.8 | 0.00 | 0.00 | 0.00 | 90 | |
| 20260506035024 | 25 | 133 | 4.8 | 4.8 | 0.00 | 0.00 | 0.00 | 90 | |
| 20260506034524 | 25 | 119 | 3.2 | 4.8 | 0.00 | 0.00 | 0.00 | 89 | |
| 20260506034044 | 25 | 147 | 4.8 | 4.8 | 0.00 | 0.00 | 0.00 | 89 | |
| 20260506033524 | 25 | 146 | 6.4 | 6.4 | 0.00 | 0.00 | 0.00 | 89 | |
| 20260506033024 | 25 | 148 | 4.8 | 6.4 | 0.00 | 0.00 | 0.00 | 89 | |
| 20260506032544 | 25 | 146 | 4.8 | 6.4 | 0.00 | 0.00 | 0.00 | 89 | |
| 20260506032024 | 25 | 149 | 4.8 | 6.4 | 0.00 | 0.00 | 0.00 | 89 | |
| 20260506031544 | 25 | 148 | 4.8 | 6.4 | 0.00 | 0.00 | 0.00 | 89 | |
| 20260506031025 | 25 | 148 | 4.8 | 6.4 | 0.00 | 0.00 | 0.00 | 89 | |
| 20260506030525 | 25 | 158 | 9.7 | 9.7 | 0.00 | 0.00 | 0.00 | 89 | |
| 20260506030025 | 25 | 167 | 8.0 | 9.7 | 0.00 | 0.00 | 0.00 | 89 | |
| 20260506025525 | 25 | 173 | 6.4 | 9.7 | 0.00 | 0.00 | 0.00 | 89 | |
| 20260506025025 | 25 | 182 | 8.0 | 9.7 | 0.00 | 0.00 | 0.00 | 89 | |
| 20260506024525 | 25 | 177 | 6.4 | 6.4 | 0.00 | 0.00 | 0.00 | 88 | |
| 20260506024025 | 25 | 183 | 6.4 | 8.0 | 0.00 | 0.00 | 0.00 | 88 | |
| 20260506023545 | 25 | 166 | 8.0 | 11.3 | 0.00 | 0.00 | 0.00 | 87 | |
| 20260506023046 | 25 | 170 | 6.4 | 8.0 | 0.00 | 0.00 | 0.00 | 87 | |
| 20260506022525 | 25 | 190 | 6.4 | 8.0 | 0.00 | 0.00 | 0.00 | 87 | |
| 20260506022025 | 25 | 183 | 6.4 | 8.0 | 0.00 | 0.00 | 0.00 | 87 | |
| 20260506021525 | 25 | 187 | 8.0 | 9.7 | 0.00 | 0.00 | 0.00 | 87 | |
| 20260506021045 | 25 | 154 | 8.0 | 9.7 | 0.00 | 0.00 | 0.00 | 86 | |
| 20260506020525 | 25 | 176 | 6.4 | 8.0 | 0.00 | 0.00 | 0.00 | 86 | |
| 20260506020025 | 25 | 191 | 6.4 | 8.0 | 0.00 | 0.00 | 0.00 | 86 | |
| 20260506015526 | 25 | 189 | 8.0 | 9.7 | 0.00 | 0.00 | 0.00 | 86 | |
| 20260506015045 | 26 | 183 | 6.4 | 11.3 | 0.00 | 0.00 | 0.00 | 86 | |
| 20260506014526 | 26 | 214 | 6.4 | 8.0 | 0.00 | 0.00 | 0.00 | 85 | |
| 20260506014025 | 26 | 176 | 6.4 | 9.7 | 0.00 | 0.00 | 0.00 | 85 | |
| 20260506013525 | 26 | 188 | 6.4 | 8.0 | 0.00 | 0.00 | 0.00 | 85 | |
| 20260506013046 | 26 | 199 | 8.0 | 8.0 | 0.00 | 0.00 | 0.00 | 85 | |
| 20260506012546 | 26 | 187 | 6.4 | 8.0 | 0.00 | 0.00 | 0.00 | 84 | |
| 20260506012026 | 26 | 157 | 9.7 | 11.3 | 0.00 | 0.00 | 0.00 | 84 | |
| 20260506011526 | 26 | 156 | 8.0 | 9.7 | 0.00 | 0.00 | 0.00 | 84 | |
| 20260506011106 | 26 | 194 | 8.0 | 8.0 | 0.00 | 0.00 | 0.00 | 84 | |
| 20260506010546 | 26 | 236 | 8.0 | 9.7 | 0.00 | 0.00 | 0.00 | 83 | |
| 20260506010026 | 26 | 243 | 9.7 | 11.3 | 0.00 | 0.00 | 0.00 | 83 | |
| 20260506005526 | 26 | 243 | 9.7 | 11.3 | 0.00 | 0.00 | 0.00 | 83 | |
| 20260506005026 | 26 | 238 | 9.7 | 11.3 | 0.00 | 0.00 | 0.00 | 82 | |
| 20260506004527 | 26 | 238 | 8.0 | 9.7 | 0.00 | 0.00 | 0.00 | 82 | |
| 20260506004026 | 26 | 237 | 8.0 | 9.7 | 0.00 | 0.00 | 0.00 | 82 | |
| 20260506003527 | 26 | 240 | 9.7 | 9.7 | 0.00 | 0.00 | 0.00 | 82 | |
| 20260506003027 | 26 | 245 | 9.7 | 11.3 | 0.00 | 0.00 | 0.00 | 81 | |
| 20260506002607 | 26 | 240 | 9.7 | 11.3 | 0.00 | 0.00 | 0.00 | 81 | |
| 20260506002048 | 26 | 228 | 9.7 | 9.7 | 0.00 | 0.00 | 0.00 | 81 | |
| 20260506001527 | 26 | 180 | 8.0 | 9.7 | 0.00 | 0.00 | 0.00 | 81 | |
| 20260506001027 | 26 | 143 | 14.5 | 17.7 | 0.00 | 0.00 | 0.00 | 81 | |
| 20260506000527 | 26 | 130 | 16.1 | 17.7 | 0.00 | 0.00 | 0.00 | 81 | |
| 20260506000027 | 26 | 131 | 9.7 | 14.5 | 0.00 | 0.00 | 0.00 | 81 | |
| 20260505235527 | 26 | 129 | 8.0 | 9.7 | 0.00 | 0.00 | 0.00 | 81 | |
| 20260505235028 | 26 | 131 | 9.7 | 14.5 | 0.00 | 0.00 | 0.00 | 81 | |
| 20260505234527 | 26 | 136 | 17.7 | 20.9 | 0.00 | 0.00 | 0.00 | 81 | |
| 20260505234028 | 26 | 134 | 19.3 | 22.5 | 0.00 | 0.00 | 0.00 | 81 | |
| 20260505233608 | 27 | 49 | 8.0 | 11.3 | 0.00 | 0.00 | 0.00 | 81 | |
| 20260505233028 | 27 | 324 | 6.4 | 6.4 | 0.00 | 0.00 | 0.00 | 80 | |
| 20260505232528 | 27 | 292 | 6.4 | 8.0 | 0.00 | 0.00 | 0.00 | 80 | |
| 20260505232028 | 27 | 286 | 6.4 | 6.4 | 0.00 | 0.00 | 0.00 | 80 | |
| 20260505231528 | 27 | 292 | 6.4 | 6.4 | 0.00 | 0.00 | 0.00 | 80 | |
| 20260505231048 | 27 | 290 | 6.4 | 6.4 | 0.00 | 0.00 | 0.00 | 80 | |
| 20260505230528 | 27 | 289 | 6.4 | 6.4 | 0.00 | 0.00 | 0.00 | 80 | |
| 20260505230028 | 27 | 272 | 6.4 | 6.4 | 0.00 | 0.00 | 0.00 | 80 | |
| 20260505225528 | 27 | 238 | 6.4 | 8.0 | 0.00 | 0.00 | 0.00 | 80 | |
| 20260505225028 | 27 | 202 | 8.0 | 9.7 | 0.00 | 0.00 | 0.00 | 79 | |
| 20260505224529 | 27 | 197 | 9.7 | 11.3 | 0.00 | 0.00 | 0.00 | 77 | |
| 20260505224028 | 27 | 198 | 9.7 | 11.3 | 0.00 | 0.00 | 0.00 | 77 | |
| 20260505223529 | 27 | 170 | 6.4 | 8.0 | 0.00 | 0.00 | 0.00 | 77 | |
| 20260505223029 | 27 | 191 | 6.4 | 11.3 | 0.00 | 0.00 | 0.00 | 77 | |
| 20260505222549 | 27 | 209 | 11.3 | 12.9 | 0.00 | 0.00 | 0.00 | 77 | |
| 20260505222029 | 27 | 209 | 11.3 | 12.9 | 0.00 | 0.00 | 0.00 | 77 | |
| 20260505221529 | 27 | 203 | 9.7 | 11.3 | 0.00 | 0.00 | 0.00 | 76 | |
| 20260505221049 | 27 | 213 | 11.3 | 11.3 | 0.00 | 0.00 | 0.00 | 77 | |
| 20260505220529 | 27 | 213 | 9.7 | 11.3 | 0.00 | 0.00 | 0.00 | 77 | |
| 20260505220029 | 27 | 204 | 8.0 | 9.7 | 0.00 | 0.00 | 0.00 | 78 | |
| 20260505215549 | 27 | 179 | 9.7 | 11.3 | 0.00 | 0.00 | 0.00 | 78 | |
| 20260505215030 | 27 | 214 | 11.3 | 14.5 | 0.00 | 0.00 | 0.00 | 77 | |
| 20260505214530 | 27 | 204 | 6.4 | 8.0 | 0.00 | 0.00 | 0.00 | 77 | |
| 20260505214029 | 27 | 188 | 11.3 | 12.9 | 0.00 | 0.00 | 0.00 | 77 | |
| 20260505213530 | 27 | 188 | 11.3 | 11.3 | 0.00 | 0.00 | 0.00 | 77 | |
| 20260505213030 | 27 | 188 | 9.7 | 12.9 | 0.00 | 0.00 | 0.00 | 77 | |
| 20260505212530 | 27 | 189 | 12.9 | 12.9 | 0.00 | 0.00 | 0.00 | 77 | |
| 20260505212030 | 27 | 189 | 12.9 | 12.9 | 0.00 | 0.00 | 0.00 | 78 | |
| 20260505211530 | 27 | 191 | 11.3 | 12.9 | 0.00 | 0.00 | 0.00 | 78 | |
| 20260505211030 | 27 | 191 | 11.3 | 11.3 | 0.00 | 0.00 | 0.00 | 78 | |
| 20260505210531 | 27 | 190 | 11.3 | 12.9 | 0.00 | 0.00 | 0.00 | 77 | |
| 20260505210030 | 27 | 195 | 11.3 | 14.5 | 0.00 | 0.00 | 0.00 | 77 | |
| 20260505205531 | 27 | 197 | 12.9 | 14.5 | 0.00 | 0.00 | 0.00 | 78 |